Cedar, IA

7:39 AM CST on February 28, 2017 (GMT -0600)
Oskaloosa Municipal

Weather History for KOOA - January, 2013

Change the Weather History Date:

Tuesday, January 15, 2013

  Actual Average (KOTM) Record (KOTM)
Temperature  
Mean Temperature 22 °F -  
Max Temperature 33 °F 30 °F 59 °F (1990)
Min Temperature 11 °F 12 °F -20 °F (1979)
Degree Days  
Heating Degree Days 43    
Moisture  
Dew Point 11 °F    
Average Humidity 66    
Maximum Humidity 84    
Minimum Humidity 35    
Precipitation  
Precipitation 0.00 in - - ()
Sea Level Pressure  
Sea Level Pressure 30.29 in    
Wind  
Wind Speed 6 mph (South)    
Max Wind Speed 10 mph    
Max Gust Speed -    
Visibility 10 miles    
Events      
Averages and records for this station are not official NWS values.
T = Trace of Precipitation, MM = Missing Value Source: NWS Daily Summary

Daily Weather History Graph

Daily Weather History Graph

Search for Another Location

Airport or City:

Trip Planner

Search our weather history database for the weather conditions in past years. The results will help you decide how hot, cold, wet, or windy it might be!

Date:

Astronomy

Jan. 15, 2013 Rise Set
Actual Time 7:33 AM CST 5:06 PM CST
Civil Twilight 7:02 AM CST 5:36 PM CST
Nautical Twilight 6:28 AM CST 6:10 PM CST
Astronomical Twilight 5:55 AM CST 6:43 PM CST
Moon 9:36 AM CST (1/15) 9:59 PM CST (1/15)
Length of Visible Light 10h 33m
Length of Day
9h 33m
Waxing Crescent, 19% of the Moon is Illuminated
Jan 15
Waxing Crescent
Jan 18
First Quarter
Jan 26
Full
Feb 3
Last Quarter
Feb 10
New

Hourly Weather History & Observations

Time (CST) Temp. Windchill Dew Point Humidity Pressure Visibility Wind Dir Wind Speed Gust Speed Precip Events Conditions
12:15 AM 15.6 °F 7.0 °F 9.7 °F 77% 30.40 in 10.0 mi South 5.8 mph - N/A   Clear
12:35 AM 16.0 °F 8.8 °F 9.9 °F 77% 30.40 in 10.0 mi SSW 4.6 mph - N/A   Clear
12:55 AM 16.2 °F 9.0 °F 10.2 °F 77% 30.40 in 10.0 mi South 4.6 mph - N/A   Clear
1:15 AM 17.1 °F 8.7 °F 10.9 °F 77% 30.40 in 10.0 mi SSW 5.8 mph - N/A   Clear
1:35 AM 18.0 °F 7.7 °F 11.3 °F 75% 30.39 in 10.0 mi SSW 8.1 mph - N/A   Clear
1:55 AM 18.5 °F 10.4 °F 11.7 °F 75% 30.39 in 10.0 mi SSW 5.8 mph - N/A   Scattered Clouds
2:15 AM 18.5 °F 9.3 °F 11.8 °F 75% 30.39 in 10.0 mi SSW 6.9 mph - N/A   Scattered Clouds
2:35 AM 18.9 °F 12.1 °F 12.0 °F 75% 30.39 in 10.0 mi SW 4.6 mph - N/A   Clear
2:55 AM 18.9 °F 12.1 °F 11.7 °F 74% 30.39 in 10.0 mi SSW 4.6 mph - N/A   Scattered Clouds
3:15 AM 18.5 °F 11.7 °F 12.0 °F 76% 30.39 in 10.0 mi SSW 4.6 mph - N/A   Overcast
3:35 AM 18.0 °F 12.7 °F 11.7 °F 76% 30.38 in 10.0 mi SSW 3.5 mph - N/A   Scattered Clouds
3:55 AM 17.6 °F 12.3 °F 11.3 °F 76% 30.38 in 10.0 mi South 3.5 mph - N/A   Scattered Clouds
4:15 AM 16.0 °F 10.4 °F 10.4 °F 79% 30.36 in 10.0 mi South 3.5 mph - N/A   Mostly Cloudy
4:55 AM 15.4 °F 8.1 °F 9.7 °F 78% 30.35 in 10.0 mi South 4.6 mph - N/A   Clear
5:15 AM 14.5 °F 5.7 °F 9.3 °F 80% 30.35 in 10.0 mi South 5.8 mph - N/A   Clear
5:35 AM 13.6 °F 6.0 °F 9.0 °F 82% 30.35 in 10.0 mi South 4.6 mph - N/A   Clear
5:55 AM 13.1 °F 2.8 °F 8.8 °F 83% 30.35 in 10.0 mi SSE 6.9 mph - N/A   Mostly Cloudy
6:15 AM 12.4 °F 3.1 °F 8.2 °F 83% 30.36 in 10.0 mi South 5.8 mph - N/A   Scattered Clouds
6:35 AM 12.0 °F 4.1 °F 8.1 °F 84% 30.36 in 10.0 mi South 4.6 mph - N/A   Clear
6:55 AM 12.6 °F 6.5 °F 8.1 °F 82% 30.36 in 10.0 mi South 3.5 mph - N/A   Clear
7:15 AM 12.6 °F 4.8 °F 7.7 °F 81% 30.36 in 10.0 mi South 4.6 mph - N/A   Clear
7:35 AM 11.3 °F 1.9 °F 7.0 °F 83% 30.37 in 10.0 mi South 5.8 mph - N/A   Clear
7:55 AM 11.7 °F 2.3 °F 7.7 °F 84% 30.38 in 10.0 mi South 5.8 mph - N/A   Clear
8:15 AM 12.9 °F 6.9 °F 8.6 °F 83% 30.38 in 10.0 mi SSW 3.5 mph - N/A   Clear
8:35 AM 15.8 °F 10.2 °F 11.5 °F 83% 30.38 in 10.0 mi South 3.5 mph - N/A   Clear
8:55 AM 19.4 °F 12.8 °F 14.0 °F 80% 30.39 in 10.0 mi SSW 4.6 mph - N/A   Clear
9:15 AM 21.9 °F 14.5 °F 15.4 °F 76% 30.39 in 10.0 mi SSW 5.8 mph - N/A   Clear
9:35 AM 23.9 °F 18.0 °F 15.6 °F 71% 30.37 in 10.0 mi SW 4.6 mph - N/A   Clear
9:55 AM 25.3 °F 21.1 °F 15.6 °F 67% 30.35 in 10.0 mi SW 3.5 mph - N/A   Clear
10:15 AM 27.3 °F 23.4 °F 15.4 °F 61% 30.35 in 10.0 mi WSW 3.5 mph - N/A   Clear
10:35 AM 28.2 °F - 13.8 °F 55% 30.33 in 10.0 mi Calm Calm - N/A   Clear
10:55 AM 28.4 °F 22.2 °F 14.7 °F 57% 30.34 in 10.0 mi SSW 5.8 mph - N/A   Clear
11:15 AM 29.8 °F 23.9 °F 12.4 °F 48% 30.34 in 10.0 mi South 5.8 mph - N/A   Clear
11:35 AM 30.4 °F 22.9 °F 11.5 °F 45% 30.33 in 10.0 mi SSW 8.1 mph - N/A   Clear
11:55 AM 31.3 °F 23.9 °F 11.5 °F 44% 30.31 in 10.0 mi South 8.1 mph - N/A   Clear
12:15 PM 31.3 °F 25.6 °F 11.3 °F 44% 30.30 in 10.0 mi SSW 5.8 mph - N/A   Clear
12:35 PM 31.8 °F 27.3 °F 12.9 °F 46% 30.29 in 10.0 mi WSW 4.6 mph - N/A   Scattered Clouds
12:55 PM 31.8 °F 25.4 °F 12.0 °F 44% 30.27 in 10.0 mi SSW 6.9 mph - N/A   Scattered Clouds
1:15 PM 32.2 °F 25.0 °F 11.1 °F 42% 30.27 in 10.0 mi SSW 8.1 mph - N/A   Mostly Cloudy
1:35 PM 32.2 °F - 10.4 °F 40% 30.26 in 10.0 mi Calm Calm - N/A   Overcast
1:55 PM 33.1 °F 27.7 °F 9.7 °F 38% 30.26 in 10.0 mi SSW 5.8 mph - N/A   Overcast
2:15 PM 32.9 °F 29.8 °F 8.6 °F 36% 30.25 in 10.0 mi South 3.5 mph - N/A   Scattered Clouds
2:35 PM 33.4 °F 26.6 °F 9.9 °F 37% 30.25 in 10.0 mi South 8.1 mph - N/A   Clear
2:55 PM 33.4 °F 27.3 °F 8.6 °F 35% 30.25 in 10.0 mi SSW 6.9 mph - N/A   Clear
3:15 PM 33.3 °F 27.1 °F 9.9 °F 38% 30.25 in 10.0 mi SSE 6.9 mph - N/A   Clear
3:35 PM 32.9 °F 25.9 °F 10.6 °F 40% 30.25 in 10.0 mi South 8.1 mph - N/A   Clear
3:55 PM 32.7 °F 24.5 °F 10.8 °F 40% 30.25 in 10.0 mi South 10.4 mph - N/A   Clear
4:15 PM 32.0 °F 24.8 °F 10.9 °F 42% 30.25 in 10.0 mi South 8.1 mph - N/A   Clear
4:35 PM 31.5 °F 23.5 °F 10.9 °F 43% 30.25 in 10.0 mi South 9.2 mph - N/A   Clear
4:55 PM 30.0 °F 22.4 °F 12.9 °F 49% 30.24 in 10.0 mi South 8.1 mph - N/A   Clear
5:15 PM 27.3 °F 19.1 °F 14.0 °F 57% 30.23 in 10.0 mi SSE 8.1 mph - N/A   Clear
5:35 PM 25.9 °F 17.4 °F 14.4 °F 62% 30.23 in 10.0 mi SSE 8.1 mph - N/A   Clear
5:55 PM 24.8 °F 15.3 °F 14.0 °F 64% 30.22 in 10.0 mi SSE 9.2 mph - N/A   Clear
6:15 PM 23.9 °F 15.0 °F 14.4 °F 67% 30.22 in 10.0 mi SSE 8.1 mph - N/A   Clear
6:35 PM 23.4 °F 12.8 °F 14.0 °F 67% 30.21 in 10.0 mi SSE 10.4 mph - N/A   Clear
6:55 PM 21.9 °F 11.7 °F 13.6 °F 70% 30.21 in 10.0 mi SSE 9.2 mph - N/A   Clear
7:15 PM 20.3 °F 10.6 °F 13.1 °F 74% 30.20 in 10.0 mi South 8.1 mph - N/A   Clear
7:35 PM 20.5 °F 11.7 °F 13.1 °F 73% 30.20 in 10.0 mi South 6.9 mph - N/A   Clear
7:55 PM 19.9 °F 10.1 °F 12.7 °F 74% 30.19 in 10.0 mi South 8.1 mph - N/A   Clear
8:15 PM 19.6 °F 11.7 °F 12.4 °F 74% 30.18 in 10.0 mi South 5.8 mph - N/A   Clear
8:35 PM 18.5 °F 8.4 °F 11.8 °F 75% 30.17 in 10.0 mi South 8.1 mph - N/A   Clear
8:55 PM 17.8 °F 6.6 °F 11.1 °F 75% 30.15 in 10.0 mi South 9.2 mph - N/A   Clear
9:15 PM 18.3 °F 8.2 °F 11.3 °F 74% 30.15 in 10.0 mi South 8.1 mph - N/A   Clear
9:35 PM 18.1 °F 6.3 °F 11.3 °F 75% 30.14 in 10.0 mi South 10.4 mph - N/A   Clear
9:55 PM 17.4 °F 7.1 °F 10.6 °F 75% 30.14 in 10.0 mi SSW 8.1 mph - N/A   Clear
10:15 PM 17.4 °F 8.0 °F 10.4 °F 74% 30.14 in 10.0 mi SSW 6.9 mph - N/A   Clear
10:35 PM 17.4 °F 8.0 °F 10.2 °F 73% 30.13 in 10.0 mi SSW 6.9 mph - N/A   Clear
10:55 PM 17.4 °F 8.0 °F 10.0 °F 73% 30.12 in 10.0 mi SSW 6.9 mph - N/A   Clear
11:15 PM 16.7 °F 7.2 °F 9.5 °F 73% 30.12 in 10.0 mi SSW 6.9 mph - N/A   Clear
11:35 PM 15.8 °F 6.1 °F 9.0 °F 74% 30.12 in 10.0 mi South 6.9 mph - N/A   Clear